TimeEST,TemperatureF,Dew PointF,Humidity,Sea Level PressureIn,VisibilityMPH,Wind Direction,Wind SpeedMPH,Gust SpeedMPH,PrecipitationIn,Events,Conditions,WindDirDegrees,DateUTC
12:56 AM,10.9,7.0,84,30.53,9.0,Calm,Calm,-,N/A,,Clear,0,2013-12-26 05:56:00
1:56 AM,14.0,9.0,80,30.52,8.0,Calm,Calm,-,N/A,,Mostly Cloudy,0,2013-12-26 06:56:00
2:03 AM,14.0,10.4,86,30.47,9.0,Calm,Calm,-,N/A,,Mostly Cloudy,0,2013-12-26 07:03:00
2:56 AM,16.0,10.9,81,30.51,9.0,Calm,Calm,-,N/A,,Overcast,0,2013-12-26 07:56:00
3:11 AM,17.6,10.4,73,30.45,9.0,Calm,Calm,-,N/A,,Overcast,0,2013-12-26 08:11:00
3:56 AM,17.1,10.9,77,30.49,10.0,Calm,Calm,-,N/A,,Overcast,0,2013-12-26 08:56:00
4:56 AM,19.0,12.9,77,30.46,10.0,Calm,Calm,-,N/A,,Overcast,0,2013-12-26 09:56:00
5:56 AM,19.9,12.9,74,30.44,9.0,Calm,Calm,-,N/A,,Overcast,0,2013-12-26 10:56:00
6:29 AM,19.4,12.2,74,30.36,9.0,Calm,Calm,-,N/A,,Overcast,0,2013-12-26 11:29:00
6:56 AM,19.0,12.9,77,30.42,9.0,Calm,Calm,-,N/A,,Overcast,0,2013-12-26 11:56:00
7:34 AM,19.4,14.0,80,30.35,9.0,Calm,Calm,-,N/A,,Overcast,0,2013-12-26 12:34:00
7:56 AM,21.0,14.0,74,30.40,8.0,Calm,Calm,-,N/A,,Overcast,0,2013-12-26 12:56:00
8:56 AM,21.0,15.1,78,30.40,6.0,WNW,4.6,-,0.00,Snow,Light Snow,300,2013-12-26 13:56:00
9:13 AM,21.2,15.8,80,30.35,1.8,Calm,Calm,-,0.00,Snow,Light Snow,0,2013-12-26 14:13:00
9:32 AM,21.2,15.8,80,30.34,1.2,Calm,Calm,-,0.00,Snow,Light Snow,0,2013-12-26 14:32:00
9:56 AM,21.9,17.1,82,30.38,2.5,Calm,Calm,-,0.00,Snow,Light Snow,0,2013-12-26 14:56:00
10:07 AM,21.2,17.6,86,30.32,5.0,Calm,Calm,-,0.00,Snow,Light Snow,0,2013-12-26 15:07:00
10:30 AM,23.0,17.6,80,30.29,5.0,ESE,3.5,-,0.00,Snow,Light Snow,110,2013-12-26 15:30:00
10:56 AM,25.0,19.9,81,30.31,4.0,Calm,Calm,-,0.00,,Overcast,0,2013-12-26 15:56:00
11:07 AM,26.6,19.4,74,30.24,2.5,ESE,3.5,-,0.00,Snow,Light Snow,110,2013-12-26 16:07:00
11:14 AM,26.6,19.4,74,30.23,5.0,East,4.6,-,0.00,,Overcast,90,2013-12-26 16:14:00
11:29 AM,26.6,21.2,80,30.22,7.0,Calm,Calm,-,0.00,,Overcast,0,2013-12-26 16:29:00
11:48 AM,28.4,21.2,74,30.20,7.0,Calm,Calm,-,0.00,,Overcast,0,2013-12-26 16:48:00
11:56 AM,28.0,21.9,78,30.25,7.0,Calm,Calm,-,0.00,,Overcast,0,2013-12-26 16:56:00
12:13 PM,28.4,23.0,80,30.17,4.0,Calm,Calm,-,N/A,,Haze,0,2013-12-26 17:13:00
12:56 PM,30.0,25.0,82,30.18,9.0,WNW,4.6,-,N/A,,Overcast,290,2013-12-26 17:56:00
1:08 PM,30.2,24.8,80,30.12,6.0,WNW,6.9,-,N/A,,Haze,300,2013-12-26 18:08:00
1:18 PM,28.4,23.0,80,30.12,3.0,West,4.6,-,0.00,Snow,Light Snow,280,2013-12-26 18:18:00
1:27 PM,28.4,23.0,80,30.12,1.8,WNW,5.8,-,0.00,Snow,Light Snow,290,2013-12-26 18:27:00
1:42 PM,28.4,24.8,86,30.11,2.0,WNW,3.5,-,0.00,Snow,Light Snow,290,2013-12-26 18:42:00
1:56 PM,28.0,24.1,85,30.15,2.0,WNW,3.5,-,0.00,Snow,Light Snow,290,2013-12-26 18:56:00
2:51 PM,28.4,26.6,93,30.09,2.0,Calm,Calm,-,0.03,Snow,Light Snow,0,2013-12-26 19:51:00
2:56 PM,28.0,26.1,92,30.14,0.8,Calm,Calm,-,0.03,Snow,Light Snow,0,2013-12-26 19:56:00
3:44 PM,28.4,26.6,93,30.08,3.0,Calm,Calm,-,0.01,,Overcast,0,2013-12-26 20:44:00
3:56 PM,28.0,26.1,92,30.14,3.0,West,3.5,-,0.01,,Overcast,280,2013-12-26 20:56:00
4:56 PM,27.0,25.0,92,30.14,4.0,Calm,Calm,-,N/A,,Mostly Cloudy,0,2013-12-26 21:56:00
5:56 PM,26.1,24.1,92,30.17,5.0,Calm,Calm,-,N/A,,Mostly Cloudy,0,2013-12-26 22:56:00
6:29 PM,21.2,21.2,100,30.13,1.8,Calm,Calm,-,N/A,,Clear,0,2013-12-26 23:29:00
6:39 PM,21.2,19.4,93,30.14,5.0,Calm,Calm,-,N/A,,Clear,0,2013-12-26 23:39:00
6:56 PM,23.0,21.9,96,30.20,5.0,West,3.5,-,N/A,,Clear,260,2013-12-26 23:56:00
7:56 PM,19.9,18.0,92,30.22,10.0,Calm,Calm,-,N/A,,Clear,0,2013-12-27 00:56:00
8:04 PM,17.6,17.6,100,30.16,2.0,Calm,Calm,-,N/A,,Clear,0,2013-12-27 01:04:00
8:10 PM,15.8,15.8,100,30.16,0.8,Calm,Calm,-,N/A,,Clear,0,2013-12-27 01:10:00
8:21 PM,17.6,17.6,100,30.17,10.0,WSW,3.5,-,N/A,,Clear,240,2013-12-27 01:21:00
8:56 PM,16.0,14.0,92,30.22,10.0,Calm,Calm,-,N/A,,Clear,0,2013-12-27 01:56:00
9:48 PM,14.0,12.2,93,30.17,10.0,South,3.5,-,N/A,,Clear,180,2013-12-27 02:48:00
9:56 PM,17.1,15.1,92,30.23,10.0,Calm,Calm,-,N/A,,Clear,0,2013-12-27 02:56:00
10:56 PM,21.9,19.9,92,30.23,9.0,WSW,6.9,-,N/A,,Clear,250,2013-12-27 03:56:00
11:56 PM,23.0,19.9,88,30.23,9.0,West,5.8,-,N/A,,Clear,260,2013-12-27 04:56:00